Regional Weather Roundup
Issued by NWS Sioux Falls, SD

Home | Current Version | Previous Version | Text Only | Print | Product List | Glossary Off
Versions: 1 2 3 4 5 6 7 8 9 10 11 12 13 14 15 16 17 18 19 20 21 22 23 24 25 26 27 28 29 30 31 32 33 34 35 36 37 38 39 40 41 42 43 44 45 46 47 48 49 50

000
ASUS43 KFSD 270810
RWRFSD

WEATHER ROUNDUP FOR SE SOUTH DAKOTA/SW MINNESOTA/NW IOWA
NATIONAL WEATHER SERVICE SIOUX FALLS SD
300 AM CDT MON APR 27 2015

NOTE: "FAIR" INDICATES FEW OR NO CLOUDS BELOW 12,000 FEET WITH NO
SIGNIFICANT WEATHER AND OR OBSTRUCTIONS TO VISIBILITY.


SDZ038>040-050-052>070-270900-
SOUTHEAST SOUTH DAKOTA

CITY           SKY/WX    TMP DP  RH WIND       PRES   REMARKS
BROOKINGS      CLEAR     43  25  49 E3        30.18F
CHAMBERLAIN    CLEAR     38  31  78 CALM      30.16R
HURON          CLEAR     42  28  57 E5        30.16S
MADISON        FAIR      36  25  64 NE7       30.17S
MITCHELL       CLEAR     43  33  68 E5        30.16S
SIOUX FALLS    CLEAR     36  29  75 NE5       30.15S
WINNER         FAIR      43  28  55 CALM      30.15S
YANKTON        CLEAR     41  27  56 NE5       30.13S
$$

MNZ071-072-080-081-089-090-097-098-270900-
SOUTHWEST MINNESOTA

CITY           SKY/WX    TMP DP  RH WIND       PRES   REMARKS
FAIRMONT       CLEAR     37  27  65 NW6       30.15S
JACKSON        CLEAR     37  23  56 VRB5      30.17R
LUVERNE        CLEAR     43  27  52 NE7       30.17S
MARSHALL       CLEAR     37  19  48 N3        30.18F
MONTEVIDEO     CLEAR     39  21  48 CALM      30.20S
REDWOOD FALLS  CLEAR     44  22  41 CALM      30.18R
TRACY          CLEAR     40  20  44 W3        30.18S
WORTHINGTON    CLEAR     34  21  60 NW5       30.17S WCI  30
$$

IAZ001>003-012>014-020>022-031-032-NEZ013-014-SDZ071-270900-
NORTHWEST IOWA

CITY           SKY/WX    TMP DP  RH WIND       PRES   REMARKS
CHEROKEE       CLEAR     36  34  91 NE3       30.15S
DENISON        CLEAR     39  37  93 CALM      30.11S
ESTHERVILLE    CLEAR     36  25  64 NW8       30.15S
LE MARS        CLEAR     39  32  75 N3        30.15F
ORANGE CITY    CLEAR     43  28  56 E6        30.15S
SHELDON        CLEAR     36  27  69 CALM      30.15S
SIOUX CITY     CLEAR     37  26  64 NW3       30.14S
SPENCER        CLEAR     31  27  85 NW5       30.15F WCI  26
STORM LAKE     CLEAR     39  30  70 N8        30.14F
$$

ABBREVIATIONS USED IN REMARKS
   TC - TEMPERATURE IN CELSIUS
  WCI - WIND CHILL INDEX
   HX - HEAT INDEX
  VSB - VISIBILITY




USA.gov is the U.S. government's official web portal to all federal, state and local government web resources and services.